EW6950 Weather Reports


time (UTC)temp
C
wind
direction
speed
KPH
gust
KPH
rain 1hr
cm
rain 24hr
cm
rain mn
cm
humidity
%
barometer
mb
20260510103735 21 336 4.8 16.1 0.00 0.00 0.00 60 1009.6
20260510103235 21 340 6.4 16.1 0.00 0.00 0.00 59 1009.7
20260510102234 21 74 4.8 16.1 0.00 0.00 0.00 59 1009.7
20260510101730 21 63 3.2 11.3 0.00 0.00 0.00 62 1009.7
20260510101233 20 32 4.8 11.3 0.00 0.00 0.00 61 1009.8
20260510100713 20 304 4.8 11.3 0.00 0.00 0.00 62 1009.8
20260510100214 20 317 4.8 11.3 0.00 0.00 0.00 61 1009.9
20260510095712 20 19 4.8 12.9 0.00 0.00 0.00 61 1010.0
20260510095213 20 315 4.8 12.9 0.00 0.00 0.00 63 1010.0
20260510094713 20 83 4.8 9.7 0.00 0.00 0.00 63 1010.0
20260510094213 20 0 4.8 11.3 0.00 0.00 0.00 63 1010.0
20260510093713 20 30 4.8 14.5 0.00 0.00 0.00 63 1010.1
20260510093211 20 332 4.8 14.5 0.00 0.00 0.00 64 1010.1
20260510092713 20 243 4.8 14.5 0.00 0.00 0.00 64 1010.3
20260510092212 20 355 4.8 14.5 0.00 0.00 0.00 64 1010.3
20260510091213 19 23 3.2 9.7 0.00 0.00 0.00 66 1010.3
20260510090713 18 69 3.2 8.0 0.00 0.00 0.00 67 1010.4
20260510090213 18 0 3.2 11.3 0.00 0.00 0.00 69 1010.4
20260510085712 18 9 3.2 11.3 0.00 0.00 0.00 70 1010.4
20260510085210 17 16 3.2 9.7 0.00 0.00 0.00 70 1010.4
20260510084210 17 323 3.2 12.9 0.00 0.00 0.00 72 1010.4
20260510083709 17 27 3.2 12.9 0.00 0.00 0.00 71 1010.5
20260510083206 17 315 3.2 14.5 0.00 0.00 0.00 72 1010.5
20260510082706 17 24 4.8 14.5 0.00 0.00 0.00 71 1010.6
20260510082217 16 329 4.8 12.9 0.00 0.00 0.00 71 1010.6
20260510081704 16 22 4.8 9.7 0.00 0.00 0.00 73 1010.6
20260510081204 16 328 4.8 9.7 0.00 0.00 0.00 71 1010.6
20260510080204 16 12 3.2 8.0 0.00 0.00 0.00 75 1010.6
20260510075704 16 47 3.2 8.0 0.00 0.00 0.00 75 1010.7
20260510075204 15 15 3.2 8.0 0.00 0.00 0.00 75 1010.7
20260510074705 15 31 4.8 8.0 0.00 0.00 0.00 74 1010.7
20260510074204 15 312 3.2 11.3 0.00 0.00 0.00 75 1010.8
20260510073704 15 306 3.2 11.3 0.00 0.00 0.00 75 1010.9
20260510073203 15 22 3.2 8.0 0.00 0.00 0.00 75 1011.0
20260510072703 15 262 3.2 8.0 0.00 0.00 0.00 76 1011.0
20260510072203 15 96 3.2 8.0 0.00 0.00 0.00 77 1011.0
20260510071705 15 313 3.2 8.0 0.00 0.00 0.00 77 1011.0
20260510071204 14 314 3.2 8.0 0.00 0.00 0.00 77 1011.0
20260510070704 14 21 3.2 8.0 0.00 0.00 0.00 77 1010.9
20260510065704 13 19 3.2 6.4 0.00 0.00 0.00 78 1011.2
20260510064205 13 349 1.6 6.4 0.00 0.00 0.00 80 1011.1
20260510063200 13 314 1.6 6.4 0.00 0.00 0.00 83 1011.0
20260510062701 12 0 1.6 6.4 0.00 0.00 0.00 84 1011.0
20260510062201 12 313 1.6 4.8 0.00 0.00 0.00 85 1011.0
20260510061700 12 311 1.6 6.4 0.00 0.00 0.00 86 1011.1
20260510061200 11 308 1.6 6.4 0.00 0.00 0.00 86 1011.1
20260510054655 10 25 1.6 4.8 0.00 0.00 0.00 89 1011.2
20260510054154 10 30 1.6 6.4 0.00 0.00 0.00 89 1011.2
20260510053652 10 26 1.6 6.4 0.00 0.00 0.00 89 1011.1
20260510053151 10 22 3.2 6.4 0.00 0.00 0.00 89 1011.1
20260510052650 10 28 3.2 6.4 0.00 0.00 0.00 90 1011.1
20260510052149 9 24 3.2 6.4 0.00 0.00 0.00 90 1011.2
20260510051649 9 19 3.2 6.4 0.00 0.00 0.00 90 1011.2
20260510051150 9 28 3.2 6.4 0.00 0.00 0.00 90 1011.2
20260510050650 9 9 1.6 4.8 0.00 0.00 0.00 90 1011.2
20260510045646 8 11 1.6 3.2 0.00 0.00 0.00 90 1011.3
20260510045146 8 10 1.6 3.2 0.00 0.00 0.00 90 1011.2
20260510044145 8 11 0.0 1.6 0.00 0.00 0.00 90 1011.3
20260510043645 8 11 0.0 1.6 0.00 0.00 0.00 90 1011.3
20260510043146 8 11 0.0 1.6 0.00 0.00 0.00 90 1011.3
20260510042645 8 11 0.0 1.6 0.00 0.00 0.00 90 1011.3
20260510042146 8 11 0.0 3.2 0.00 0.00 0.00 90 1011.3
20260510041642 8 11 1.6 3.2 0.00 0.00 0.00 90 1011.3
20260510040142 8 11 1.6 3.2 0.00 0.00 0.00 90 1011.6
20260510035641 8 9 1.6 3.2 0.00 0.00 0.00 90 1011.6
20260510035142 8 9 1.6 4.8 0.00 0.00 0.00 90 1011.6
20260510034642 8 9 1.6 4.8 0.00 0.00 0.00 90 1011.6
20260510034141 8 331 1.6 3.2 0.00 0.00 0.00 90 1011.7
20260510033642 8 325 1.6 3.2 0.00 0.00 0.00 90 1011.7
20260510033137 8 325 1.6 3.2 0.00 0.00 0.00 90 1011.7
20260510032137 8 323 1.6 3.2 0.00 0.00 0.00 90 1011.8
20260510031638 8 0 1.6 3.2 0.00 0.00 0.00 90 1011.8
20260510031137 8 9 1.6 3.2 0.00 0.00 0.00 90 1011.9
20260510030636 8 0 1.6 4.8 0.00 0.00 0.00 90 1011.8
20260510025636 8 325 1.6 3.2 0.00 0.00 0.00 89 1011.8
20260510024636 9 323 1.6 4.8 0.00 0.00 0.00 90 1011.9
20260510023635 9 355 3.2 6.4 0.00 0.00 0.00 89 1012.1
20260510023135 9 25 1.6 4.8 0.00 0.00 0.00 89 1012.2
20260510022133 9 12 3.2 4.8 0.00 0.00 0.00 89 1012.2
20260510021632 9 323 1.6 4.8 0.00 0.00 0.00 89 1012.2
20260510021129 9 338 1.6 3.2 0.00 0.00 0.00 89 1012.3
20260510020623 9 327 0.0 1.6 0.00 0.00 0.00 89 1012.4
20260510015611 9 327 0.0 1.6 0.00 0.00 0.00 89 1012.4
20260510015106 9 327 0.0 1.6 0.00 0.00 0.00 89 1012.4
20260510014603 9 327 0.0 3.2 0.00 0.00 0.00 89 1012.4
20260510014103 9 327 1.6 3.2 0.00 0.00 0.00 89 1012.4
20260510013603 9 327 1.6 3.2 0.00 0.00 0.00 89 1012.5
20260510013103 9 327 1.6 3.2 0.00 0.00 0.00 89 1012.4
20260510012603 9 327 0.0 3.2 0.00 0.00 0.00 89 1012.5
20260510012103 9 327 0.0 1.6 0.00 0.00 0.00 89 1012.5
20260510011603 10 327 0.0 1.6 0.00 0.00 0.00 89 1012.4
20260510011103 10 327 0.0 3.2 0.00 0.00 0.00 88 1012.5
20260510010603 10 327 1.6 3.2 0.00 0.00 0.00 89 1012.6
20260510004602 10 319 0.0 3.2 0.00 0.00 0.00 89 1012.7
20260510003602 10 319 1.6 3.2 0.00 0.00 0.00 88 1012.7
20260510003102 10 319 1.6 3.2 0.00 0.00 0.00 88 1012.7
20260510002055 10 319 1.6 3.2 0.00 0.00 0.00 88 1012.8
20260510001549 10 319 1.6 3.2 0.00 0.00 0.00 88 1012.9
20260510001043 10 319 1.6 3.2 0.00 0.00 0.00 88 1012.9
20260510000042 10 317 1.6 3.2 0.00 0.00 0.00 88 1012.9
20260509235541 10 317 1.6 3.2 0.00 0.00 0.00 87 1012.8
20260509235041 10 317 1.6 4.8 0.00 0.00 0.00 87 1012.9
20260509234541 10 319 1.6 4.8 0.00 0.00 0.00 87 1012.9
20260509234037 10 320 1.6 4.8 0.00 0.00 0.00 87 1013.0
20260509233535 10 327 1.6 6.4 0.00 0.00 0.00 86 1013.0
20260509233035 10 319 1.6 6.4 0.00 0.00 0.00 86 1013.0
20260509232535 11 311 1.6 6.4 0.00 0.00 0.00 86 1013.0
20260509232036 11 350 1.6 6.4 0.00 0.00 0.00 85 1013.0
20260509231535 11 350 3.2 6.4 0.00 0.00 0.00 84 1013.1
20260509231035 11 21 1.6 4.8 0.00 0.00 0.00 83 1013.1
20260509230535 11 22 1.6 4.8 0.00 0.00 0.00 82 1013.1
20260509230035 12 336 1.6 6.4 0.00 0.00 0.00 82 1013.1
20260509225533 12 23 1.6 6.4 0.00 0.00 0.00 81 1013.1
20260509224533 12 32 1.6 6.4 0.00 0.00 0.00 80 1013.2
20260509224032 12 0 1.6 4.8 0.00 0.00 0.00 79 1013.2
20260509223531 12 5 1.6 4.8 0.00 0.00 0.00 78 1013.2
20260509222527 13 351 1.6 4.8 0.00 0.00 0.00 75 1013.2
20260509222027 13 351 1.6 4.8 0.00 0.00 0.00 73 1013.3
20260509221525 14 27 1.6 6.4 0.00 0.00 0.00 71 1013.3
20260509221023 15 55 3.2 6.4 0.00 0.00 0.00 71 1013.2
20260509215518 15 46 3.2 8.0 0.00 0.00 0.00 70 1013.3
20260509215016 15 51 3.2 6.4 0.00 0.00 0.00 70 1013.3
20260509214516 15 61 3.2 6.4 0.00 0.00 0.00 70 1013.4
20260509214016 15 71 3.2 6.4 0.00 0.00 0.00 70 1013.5
20260509213514 15 51 3.2 9.7 0.00 0.00 0.00 70 1013.5
20260509213012 15 51 3.2 9.7 0.00 0.00 0.00 70 1013.4
20260509212511 15 42 3.2 8.0 0.00 0.00 0.00 70 1013.4
20260509212012 15 40 3.2 8.0 0.00 0.00 0.00 71 1013.5
20260509211512 15 58 3.2 8.0 0.00 0.00 0.00 72 1013.5
20260509211012 14 55 3.2 8.0 0.00 0.00 0.00 72 1013.4
20260509210510 14 48 1.6 6.4 0.00 0.00 0.00 73 1013.6
20260509205010 13 9 1.6 4.8 0.00 0.00 0.00 76 1013.5
20260509204510 13 0 1.6 3.2 0.00 0.00 0.00 76 1013.5
20260509204009 13 0 1.6 3.2 0.00 0.00 0.00 75 1013.5
20260509203510 13 0 1.6 3.2 0.00 0.00 0.00 75 1013.5
20260509202506 13 0 1.6 3.2 0.00 0.00 0.00 75 1013.6
20260509202005 13 0 1.6 3.2 0.00 0.00 0.00 74 1013.6
20260509201506 14 0 1.6 3.2 0.00 0.00 0.00 74 1013.6
20260509200506 14 10 1.6 3.2 0.00 0.00 0.00 73 1013.5
20260509200008 14 9 1.6 4.8 0.00 0.00 0.00 73 1013.5
20260509195506 14 19 1.6 4.8 0.00 0.00 0.00 72 1013.5
20260509194506 15 13 1.6 3.2 0.00 0.00 0.00 72 1013.4
20260509194007 15 14 1.6 3.2 0.00 0.00 0.00 72 1013.4
20260509193508 15 14 1.6 3.2 0.00 0.00 0.00 72 1013.4
20260509193007 15 14 1.6 3.2 0.00 0.00 0.00 71 1013.4
20260509192002 16 13 1.6 3.2 0.00 0.00 0.00 70 1013.3
20260509191504 16 13 1.6 3.2 0.00 0.00 0.00 70 1013.4
20260509190502 17 13 1.6 3.2 0.00 0.00 0.00 68 1013.4
20260509185957 17 13 1.6 3.2 0.00 0.00 0.00 68 1013.5
20260509185458 17 13 1.6 3.2 0.00 0.00 0.00 66 1013.4
20260509184955 17 16 1.6 3.2 0.00 0.00 0.00 65 1013.4
20260509183951 18 18 1.6 3.2 0.00 0.00 0.00 63 1013.3
20260509183451 18 52 1.6 3.2 0.00 0.00 0.00 62 1013.4
20260509182949 18 52 1.6 3.2 0.00 0.00 0.00 62 1013.3
20260509182447 18 52 1.6 3.2 0.00 0.00 0.00 60 1013.2
20260509181446 19 52 0.0 3.2 0.00 0.00 0.00 58 1013.1
20260509180446 20 52 1.6 4.8 0.00 0.00 0.00 54 1013.2
20260509175945 20 52 3.2 8.0 0.00 0.00 0.00 53 1013.2
20260509175446 20 44 3.2 8.0 0.00 0.00 0.00 52 1013.0
20260509174946 20 55 1.6 6.4 0.00 0.00 0.00 54 1013.1
20260509174445 20 54 1.6 6.4 0.00 0.00 0.00 52 1013.0
20260509173937 20 63 1.6 6.4 0.00 0.00 0.00 53 1013.0
20260509173435 20 90 3.2 6.4 0.00 0.00 0.00 52 1013.0
20260509172936 20 92 3.2 4.8 0.00 0.00 0.00 51 1013.2
20260509172436 20 97 3.2 6.4 0.00 0.00 0.00 51 1013.3
20260509171933 20 101 3.2 9.7 0.00 0.00 0.00 50 1013.2
20260509171433 20 47 4.8 9.7 0.00 0.00 0.00 49 1013.1
20260509170934 20 77 4.8 9.7 0.00 0.00 0.00 49 1013.0
20260509170433 20 59 4.8 12.9 0.00 0.00 0.00 50 1013.0
20260509165934 20 17 3.2 12.9 0.00 0.00 0.00 50 1013.0
20260509165433 21 94 3.2 11.3 0.00 0.00 0.00 48 1013.0
20260509164432 21 70 6.4 12.9 0.00 0.00 0.00 47 1013.1
20260509163932 21 55 4.8 12.9 0.00 0.00 0.00 47 1013.0
20260509163433 21 69 3.2 12.9 0.00 0.00 0.00 48 1013.0
20260509162932 21 321 3.2 6.4 0.00 0.00 0.00 49 1013.1
20260509162431 21 331 3.2 6.4 0.00 0.00 0.00 48 1013.1
20260509161925 21 317 3.2 6.4 0.00 0.00 0.00 48 1013.1
20260509161419 21 51 4.8 9.7 0.00 0.00 0.00 47 1013.3
20260509160913 21 24 6.4 14.5 0.00 0.00 0.00 46 1013.3
20260509160407 21 19 6.4 14.5 0.00 0.00 0.00 47 1013.3
20260509155906 21 34 6.4 14.5 0.00 0.00 0.00 47 1013.4
20260509155406 21 355 8.0 16.1 0.00 0.00 0.00 46 1013.3
20260509154405 22 0 4.8 14.5 0.00 0.00 0.00 45 1013.4
20260509153405 22 232 1.6 6.4 0.00 0.00 0.00 46 1013.5
20260509152405 21 187 1.6 6.4 0.00 0.00 0.00 50 1013.6
20260509151405 21 159 1.6 4.8 0.00 0.00 0.00 50 1013.9
20260509150905 21 76 3.2 8.0 0.00 0.00 0.00 50 1013.9
20260509150404 21 126 3.2 11.3 0.00 0.00 0.00 49 1013.9
20260509145906 21 328 3.2 12.9 0.00 0.00 0.00 49 1013.9
20260509144857 21 60 4.8 12.9 0.00 0.00 0.00 47 1013.9
20260509144351 21 115 4.8 14.5 0.00 0.00 0.00 48 1013.9
20260509143847 21 34 4.8 16.1 0.00 0.00 0.00 48 1013.9
20260509143339 21 38 4.8 16.1 0.00 0.00 0.00 47 1014.0
20260509142837 21 28 3.2 8.0 0.00 0.00 0.00 48 1013.9
20260509141838 21 315 3.2 8.0 0.00 0.00 0.00 46 1014.1
20260509141337 21 323 4.8 8.0 0.00 0.00 0.00 46 1014.1
20260509140840 21 48 4.8 11.3 0.00 0.00 0.00 47 1014.2
20260509140337 21 96 4.8 11.3 0.00 0.00 0.00 48 1014.1
20260509135837 21 336 3.2 12.9 0.00 0.00 0.00 47 1014.2
20260509135337 21 13 6.4 14.5 0.00 0.00 0.00 47 1014.2
20260509134837 21 11 6.4 14.5 0.00 0.00 0.00 46 1014.3
20260509133837 22 331 4.8 12.9 0.00 0.00 0.00 45 1014.5
20260509133337 22 325 4.8 12.9 0.00 0.00 0.00 46 1014.5
20260509132837 22 67 4.8 12.9 0.00 0.00 0.00 46 1014.5
20260509132337 21 21 3.2 8.0 0.00 0.00 0.00 48 1014.6
20260509131837 21 319 4.8 8.0 0.00 0.00 0.00 47 1014.6
20260509131335 21 304 3.2 9.7 0.00 0.00 0.00 48 1014.7
20260509130835 21 76 3.2 14.5 0.00 0.00 0.00 47 1014.8
20260509130335 21 311 4.8 14.5 0.00 0.00 0.00 46 1014.9
20260509125835 21 326 4.8 14.5 0.00 0.00 0.00 46 1014.9
20260509125333 21 317 4.8 14.5 0.00 0.00 0.00 47 1014.9
20260509124332 21 296 4.8 11.3 0.00 0.00 0.00 47 1014.9
20260509123832 21 321 4.8 11.3 0.00 0.00 0.00 46 1014.9
20260509123332 21 289 3.2 12.9 0.00 0.00 0.00 47 1015.0
20260509122333 21 21 4.8 16.1 0.00 0.00 0.00 49 1015.1
20260509121832 21 27 4.8 16.1 0.00 0.00 0.00 48 1015.1
20260509120832 21 310 3.2 8.0 0.00 0.00 0.00 48 1015.4
20260509120333 21 11 4.8 11.3 0.00 0.00 0.00 49 1015.4
20260509115833 20 5 4.8 11.3 0.00 0.00 0.00 49 1015.6
20260509115332 20 35 4.8 14.5 0.00 0.00 0.00 48 1015.6
20260509114332 20 103 6.4 16.1 0.00 0.00 0.00 47 1015.6
20260509113833 20 294 4.8 16.1 0.00 0.00 0.00 48 1015.7
20260509113332 20 80 4.8 12.9 0.00 0.00 0.00 47 1015.7
20260509112332 20 35 6.4 14.5 0.00 0.00 0.00 47 1015.8
20260509111832 20 103 4.8 9.7 0.00 0.00 0.00 50 1015.8
20260509111333 20 53 4.8 12.9 0.00 0.00 0.00 51 1015.9
20260509110833 20 15 6.4 14.5 0.00 0.00 0.00 49 1015.9
20260509110332 20 42 4.8 14.5 0.00 0.00 0.00 49 1016.0
20260509105831 20 34 4.8 14.5 0.00 0.00 0.00 51 1016.0
20260509105332 20 308 6.4 16.1 0.00 0.00 0.00 50 1016.1
20260509104332 19 71 6.4 17.7 0.00 0.00 0.00 50 1016.2